Погода в Покровке

Россия / Белгородская область     50°53′31″N   36°26′01″E
темп.,
°C
ветер,
м/с
пор.,
м/с
влажн.,
%
обл.,
%
осадки,
мм/ч
давл.,
гПа
погр.,
м
9 марта, вт
вт900:00−6зсз339117 0.0 101084
03:00−6зсз369446 0.0 1012226
06:00−7ссз489399 0.1 1013344
09:00−9сз469296 0.1 1015326
12:00−7сз468597 0.1 1017657
15:00−6ссз568199 0.2 1019810
18:00−7ссз4683100 0.1 1020653
21:00−10сз249277 0.1 1022146
10 марта, ср
ср1000:00−10зсз369471 0.0 1023233
03:00−12сз349567 0.0 1025150
06:00−13сз249537 0.0 1026128
09:00−12ссз238929 0.0 1028248
12:00−9ссз347581 0.0 1028563
15:00−7сз236886 0.0 1028688
18:00−8ссз228197 0.0 1027155
21:00−9всв239098 0.0 1028135
11 марта, чт
чт1100:00−10всв359391 0.0 1029224
03:00−12всв469396 0.2 1031286
06:00−13всв4690100 0.2 1031271
09:00−13в357893 0.2 1033300
12:00−10в356511 0.0 1033534
15:00−8в33525 0.0 1032805
18:00−10в23650 0.0 1032133
21:00−12в34750 0.0 103393
12 марта, пт
пт1200:00−12вюв34750 0.0 1033109
03:00−12юв34770 0.0 1033107
06:00−13юв34780 0.0 103489
09:00−11ююв47710 0.0 1034400
12:00−8ююв57580 0.0 1033702
15:00−6ююв575227 0.0 1032924
18:00−7ююв4957100 0.0 1030280
21:00−7ююв51155100 0.0 1031379
13 марта, сб
сб1300:00−7ю61353100 0.0 1030564
03:00−6ю71353100 0.0 1029564
06:00−7ю71455100 0.0 1028581
09:00−6ю81359100 0.0 1028691
12:00−3ююз81264100 0.0 1027842
15:00−1ююз71172100 0.0 1026886
18:00−2ююз5117695 0.0 1025507
21:00−2ю5127889 0.0 1024471